#timestamp,LO_Frequency,Hit,Temp,Hum 
1479834015.1,286047587.9,N,0.0,0.0
1479834035.9,286047588.4,N,0.0,0.0
1479834055.7,286047585.7,N,0.0,0.0
1479834075.6,286047585.3,N,0.0,0.0
1479834095.4,286047585.8,N,0.0,0.0
1479834115.2,286047586.4,N,0.0,0.0
1479834135.1,286047583.7,N,0.0,0.0
1479834136.0,286047583.7,N,0.0,0.0
1479834155.8,286047586.4,N,0.0,0.0
1479834175.7,286047586.0,N,0.0,0.0
1479834195.5,286047586.4,N,0.0,0.0
1479834215.3,286047584.1,N,0.0,0.0
1479834235.2,286047584.3,N,0.0,0.0
1479834255.9,286047584.2,N,0.0,0.0
1479834275.7,286047583.7,N,0.0,0.0
1479834295.6,286047584.3,N,0.0,0.0
1479834315.4,286047585.2,N,0.0,0.0
1479834335.3,286047582.2,N,0.0,0.0
1479834355.1,286047582.4,N,0.0,0.0
1479834356.0,286047582.4,N,0.0,0.0
1479834375.8,286047582.8,N,0.0,0.0
1479834395.7,286047583.2,N,0.0,0.0
1479834415.5,286047583.0,N,0.0,0.0
1479834435.3,286047583.0,N,0.0,0.0
1479834455.2,286047582.1,N,0.0,0.0
1479834475.0,286047582.1,N,0.0,0.0
1479834475.9,286047582.1,N,0.0,0.0
1479834495.8,286047582.8,N,0.0,0.0
1479834515.6,286047585.1,N,0.0,0.0
1479834535.4,286047583.1,N,0.0,0.0
1479834555.3,286047580.8,N,0.0,0.0
1479834575.1,286047583.5,N,0.0,0.0
1479834595.9,286047581.2,N,0.0,0.0
1479834615.7,286047581.8,N,0.0,0.0
1479834635.5,286047581.4,N,0.0,0.0
1479834655.4,286047581.1,N,0.0,0.0
1479834675.2,286047581.1,N,0.0,0.0
1479834695.0,286047580.9,N,0.0,0.0
1479834695.9,286047580.9,N,0.0,0.0
1479834715.8,286047581.7,N,0.0,0.0
1479834735.6,286047582.0,N,0.0,0.0
1479834755.5,286047581.4,N,0.0,0.0
1479834775.3,286047581.6,N,0.0,0.0
1479834795.1,286047579.0,N,0.0,0.0
1479834815.9,286047579.4,N,0.0,0.0
1479834835.7,286047579.5,N,0.0,0.0
1479834855.5,286047578.9,N,0.0,0.0
1479834875.4,286047581.1,N,0.0,0.0
1479834895.2,286047583.5,N,0.0,0.0
1479834915.1,286047583.6,N,0.0,0.0
1479834916.0,286047583.6,N,0.0,0.0
1479834935.8,286047582.7,N,0.0,0.0
1479834955.6,286047584.7,N,0.0,0.0
1479834975.5,286047585.1,N,0.0,0.0
1479834995.3,286047582.8,N,0.0,0.0
1479835015.1,286047583.0,N,0.0,0.0
1479835035.9,286047583.3,N,0.0,0.0
1479835055.7,286047582.6,N,0.0,0.0
1479835075.6,286047582.2,N,0.0,0.0
1479835095.4,286047582.5,N,0.0,0.0
1479835115.2,286047582.6,N,0.0,0.0
1479835135.1,286047585.0,N,0.0,0.0
1479835136.0,286047585.0,N,0.0,0.0
1479835155.8,286047586.2,N,0.0,0.0
1479835175.7,286047585.6,N,0.0,0.0
1479835195.5,286047588.4,N,0.0,0.0
1479835215.3,286047588.3,N,0.0,0.0
1479835235.2,286047588.3,N,0.0,0.0
1479835255.0,286047588.3,N,0.0,0.0
1479835255.9,286047588.3,N,0.0,0.0
1479835275.7,286047588.4,N,0.0,0.0
1479835295.6,286047588.3,N,0.0,0.0
1479835315.4,286047588.2,N,0.0,0.0
1479835335.3,286047587.8,N,0.0,0.0
1479835355.1,286047587.2,N,0.0,0.0
1479835375.8,286047588.2,N,0.0,0.0
1479835395.7,286047587.8,N,0.0,0.0
1479835415.5,286047587.2,N,0.0,0.0
1479835435.4,286047587.0,N,0.0,0.0
1479835455.2,286047587.0,N,0.0,0.0
1479835475.0,286047587.4,N,0.0,0.0
1479835475.9,286047587.4,N,0.0,0.0
1479835495.8,286047587.5,N,0.0,0.0
1479835515.6,286047587.7,N,0.0,0.0
1479835535.4,286047587.0,N,0.0,0.0
1479835555.3,286047589.9,N,0.0,0.0
1479835575.1,286047586.9,N,0.0,0.0
1479835595.9,286047586.9,N,0.0,0.0
1479835615.7,286047589.9,N,0.0,0.0
1479835635.5,286047589.5,N,0.0,0.0
1479835655.4,286047589.1,N,0.0,0.0
1479835675.2,286047591.5,N,0.0,0.0
1479835695.0,286047591.6,N,0.0,0.0
1479835696.0,286047591.6,N,0.0,0.0
1479835715.8,286047588.5,N,0.0,0.0
1479835735.6,286047588.9,N,0.0,0.0
1479835755.5,286047591.5,N,0.0,0.0
1479835775.3,286047590.8,N,0.0,0.0
1479835795.1,286047590.9,N,0.0,0.0
1479835815.9,286047591.3,N,0.0,0.0
1479835835.7,286047591.4,N,0.0,0.0
1479835855.6,286047591.0,N,0.0,0.0
1479835875.4,286047591.5,N,0.0,0.0
1479835895.2,286047591.2,N,0.0,0.0
1479835915.1,286047588.9,N,0.0,0.0
1479835916.0,286047588.9,N,0.0,0.0
1479835935.8,286047591.2,N,0.0,0.0
1479835955.7,286047591.4,N,0.0,0.0
1479835975.5,286047591.2,N,0.0,0.0
1479835995.3,286047590.9,N,0.0,0.0
1479836015.2,286047590.3,N,0.0,0.0
1479836035.9,286047590.2,N,0.0,0.0
1479836055.7,286047593.0,N,0.0,0.0
1479836075.6,286047591.9,N,0.0,0.0
1479836095.4,286047592.8,N,0.0,0.0
1479836115.3,286047593.1,N,0.0,0.0
1479836135.1,286047592.5,N,0.0,0.0
1479836136.0,286047592.5,N,0.0,0.0
1479836155.8,286047592.9,N,0.0,0.0
1479836175.7,286047592.7,N,0.0,0.0
1479836195.5,286047592.7,N,0.0,0.0
1479836215.4,286047593.0,N,0.0,0.0
1479836235.2,286047594.8,N,0.0,0.0
1479836255.0,286047592.3,N,0.0,0.0
1479836255.9,286047592.3,N,0.0,0.0
1479836275.8,286047592.5,N,0.0,0.0
1479836295.6,286047591.7,N,0.0,0.0
1479836315.4,286047592.2,N,0.0,0.0
1479836335.3,286047592.1,N,0.0,0.0
1479836355.1,286047594.5,N,0.0,0.0
1479836375.9,286047593.3,N,0.0,0.0
1479836395.7,286047596.3,N,0.0,0.0
1479836415.5,286047593.8,N,0.0,0.0
1479836435.4,286047593.8,N,0.0,0.0
1479836455.2,286047593.8,N,0.0,0.0
1479836475.0,286047594.6,N,0.0,0.0
1479836476.0,286047594.6,N,0.0,0.0
1479836495.8,286047596.0,N,0.0,0.0
1479836515.6,286047593.3,N,0.0,0.0
1479836535.5,286047595.9,N,0.0,0.0
1479836555.3,286047596.2,N,0.0,0.0
1479836575.1,286047596.0,N,0.0,0.0
1479836595.9,286047596.1,N,0.0,0.0
1479836615.7,286047595.6,N,0.0,0.0
1479836635.6,286047595.1,N,0.0,0.0
1479836655.4,286047595.8,N,0.0,0.0
1479836675.2,286047596.2,N,0.0,0.0
1479836695.1,286047595.5,N,0.0,0.0
1479836696.0,286047595.5,N,0.0,0.0
1479836715.8,286047594.9,N,0.0,0.0
1479836735.6,286047595.7,N,0.0,0.0
1479836755.5,286047597.6,N,0.0,0.0
1479836775.3,286047597.4,N,0.0,0.0
1479836795.2,286047597.6,N,0.0,0.0
1479836815.9,286047597.2,N,0.0,0.0
1479836835.7,286047597.1,N,0.0,0.0
1479836855.6,286047597.4,N,0.0,0.0
1479836875.4,286047597.2,N,0.0,0.0
1479836895.3,286047596.5,N,0.0,0.0
1479836915.1,286047599.3,N,0.0,0.0
1479836916.0,286047599.3,N,0.0,0.0
1479836935.8,286047598.3,N,0.0,0.0
1479836955.7,286047598.2,N,0.0,0.0
1479836975.5,286047598.6,N,0.0,0.0
1479836995.3,286047601.0,N,0.0,0.0
1479837015.2,286047600.9,N,0.0,0.0
1479837035.0,286047599.9,N,0.0,0.0
1479837035.9,286047599.9,N,0.0,0.0
1479837055.8,286047602.4,N,0.0,0.0
1479837075.6,286047598.3,N,0.0,0.0
1479837095.4,286047598.2,N,0.0,0.0
1479837115.3,286047600.4,N,0.0,0.0
1479837135.1,286047600.6,N,0.0,0.0
1479837155.9,286047600.0,N,0.0,0.0
1479837175.7,286047600.9,N,0.0,0.0
1479837195.5,286047599.8,N,0.0,0.0
1479837215.4,286047602.6,N,0.0,0.0
1479837235.2,286047601.9,N,0.0,0.0
1479837255.0,286047602.0,N,0.0,0.0
1479837255.9,286047602.0,N,0.0,0.0
1479837275.8,286047601.9,N,0.0,0.0
1479837295.6,286047602.0,N,0.0,0.0
1479837315.5,286047602.5,N,0.0,0.0
1479837335.3,286047601.5,N,0.0,0.0
1479837355.1,286047604.0,N,0.0,0.0
1479837375.9,286047601.9,N,0.0,0.0
1479837395.7,286047602.5,N,0.0,0.0
1479837415.6,286047601.9,N,0.0,0.0
1479837435.4,286047601.8,N,0.0,0.0
1479837455.2,286047602.0,N,0.0,0.0
1479837475.1,286047602.4,N,0.0,0.0
1479837476.0,286047602.4,N,0.0,0.0
1479837495.8,286047602.8,N,0.0,0.0
1479837515.6,286047602.2,N,0.0,0.0
1479837535.5,286047601.7,N,0.0,0.0
1479837555.3,286047603.8,N,0.0,0.0
1479837575.2,286047603.9,N,0.0,0.0
1479837595.9,286047603.4,N,0.0,0.0
